This is the latest recevied weather packets stored in our database for station/object KF7U. If no packets are shown the sender has not sent any weather packets the latest 10 day(s).
| Time | Temp. | Humidity | Pressure | Rain* | Wind** | Luminosity | Snow |
|---|---|---|---|---|---|---|---|
| 1787841489 | 32.22° C | 33% | 1013.9 hPa | 0 mm | - | - | - |
| 1787841187 | 31.67° C | 35% | 1013.5 hPa | 0 mm | - | - | - |
| 1787840888 | 31.67° C | 35% | 1013.5 hPa | 0 mm | - | - | - |
| 1787840288 | 30° C | 39% | 1013.5 hPa | 0 mm | - | - | - |
| 1787839988 | 30° C | 41% | 1013.5 hPa | 0 mm | - | - | - |
| 1787839688 | 29.44° C | 42% | 1013.2 hPa | 0 mm | - | - | - |
| 1787839388 | 28.89° C | 43% | 1013.2 hPa | 0 mm | - | - | - |
| 1787839090 | 28.89° C | 42% | 1013.2 hPa | 0 mm | - | - | - |
| 1787838789 | 28.33° C | 42% | 1013.2 hPa | 0 mm | - | - | - |
| 1787838488 | 28.33° C | 42% | 1013.2 hPa | 0 mm | - | - | - |
| 1787838188 | 28.33° C | 42% | 1012.9 hPa | 0 mm | - | - | - |
| 1787837888 | 28.33° C | 42% | 1012.9 hPa | 0 mm | - | - | - |
| 1787837589 | 28.33° C | 43% | 1012.9 hPa | 0 mm | - | - | - |
| 1787837288 | 28.33° C | 42% | 1012.9 hPa | 0 mm | - | - | - |
| 1787836988 | 28.33° C | 41% | 1012.5 hPa | 0 mm | - | - | - |
| 1787836690 | 28.33° C | 42% | 1012.5 hPa | 0 mm | - | - | - |
| 1787836387 | 28.33° C | 42% | 1012.5 hPa | 0 mm | - | - | - |
| 1787836088 | 28.33° C | 41% | 1012.5 hPa | 0 mm | - | - | - |
| 1787835788 | 28.33° C | 41% | 1012.5 hPa | 0 mm | - | - | - |
| 1787835488 | 28.33° C | 41% | 1012.2 hPa | 0 mm | - | - | - |
| 1787835188 | 28.33° C | 41% | 1012.2 hPa | 0 mm | - | - | - |
| 1787834887 | 28.33° C | 40% | 1012.2 hPa | 0 mm | - | - | - |
| 1787834588 | 28.33° C | 39% | 1011.9 hPa | 0 mm | - | - | - |
| 1787834288 | 28.89° C | 40% | 1011.9 hPa | 0 mm | - | - | - |
| 1787833988 | 28.89° C | 38% | 1011.9 hPa | 0 mm | - | - | - |
* Rain latest hour (hover to see other rain measurements)
** Current wind speed in m/s (hover to see current wind gust speed)